GW5845 Weather Reports


Display with metric or nautical units.
time (UTC)temp
F
wind
direction
speed
MPH
gust
MPH
rain 1hr
in
rain 24hr
in
rain mn
in
humidity
%
barometer
mb
20260503203043 63 351 4.0 8.0 0.00 0.00 0.00 35 1013.5
20260503202541 61 332 8.0 9.0 0.00 0.00 0.00 33 1013.5
20260503202039 62 318 7.0 9.0 0.00 0.00 0.00 33 1013.4
20260503201537 61 45 3.0 3.0 0.00 0.00 0.00 34 1013.8
20260503201033 62 9 4.0 8.0 0.00 0.00 0.00 31 1013.8
20260503200529 62 240 9.0 11.0 0.00 0.00 0.00 33 1013.9
20260503200026 62 244 3.0 3.0 0.00 0.00 0.00 33 1013.9
20260503195524 62 25 3.0 3.0 0.00 0.00 0.00 33 1013.9
20260503195020 61 66 4.0 6.0 0.00 0.00 0.00 32 1014.1
20260503194518 60 340 13.0 16.0 0.00 0.00 0.00 32 1014.1
20260503194017 62 5 8.0 10.0 0.00 0.00 0.00 34 1014.3
20260503193514 62 237 5.0 6.0 0.00 0.00 0.00 35 1014.2
20260503193009 62 222 11.0 13.0 0.00 0.00 0.00 34 1014.3
20260503192506 61 283 1.0 2.0 0.00 0.00 0.00 35 1014.3
20260503192001 60 277 3.0 6.0 0.00 0.00 0.00 35 1014.4
20260503191459 61 284 3.0 3.0 0.00 0.00 0.00 33 1014.5
20260503190955 62 343 5.0 9.0 0.00 0.00 0.00 30 1014.8
20260503190453 59 75 4.0 6.0 0.00 0.00 0.00 31 1014.8
20260503185950 60 41 8.0 11.0 0.00 0.00 0.00 32 1014.7
20260503185446 61 317 1.0 2.0 0.00 0.00 0.00 35 1014.8
20260503184945 60 311 7.0 10.0 0.00 0.00 0.00 35 1014.9
20260503184442 60 40 3.0 5.0 0.00 0.00 0.00 35 1015.0
20260503183938 59 9 0.0 0.0 0.00 0.00 0.00 37 1015.0
20260503183435 60 285 2.0 3.0 0.00 0.00 0.00 36 1015.3
20260503182932 59 246 11.0 13.0 0.00 0.00 0.00 35 1014.9
20260503182431 59 328 2.0 3.0 0.00 0.00 0.00 35 1015.1
20260503181928 60 233 7.0 7.0 0.00 0.00 0.00 36 1015.1
20260503181425 60 266 2.0 2.0 0.00 0.00 0.00 36 1014.9
20260503180921 59 323 5.0 9.0 0.00 0.00 0.00 33 1015.4
20260503180420 60 355 4.0 9.0 0.00 0.00 0.00 37 1015.3
20260503175917 60 311 5.0 9.0 0.00 0.00 0.00 37 1015.5
20260503175415 59 231 4.0 7.0 0.00 0.00 0.00 37 1015.4
20260503174910 58 316 5.0 6.0 0.00 0.00 0.00 37 1015.7
20260503174409 59 5 6.0 7.0 0.00 0.00 0.00 39 1015.4
20260503173908 59 10 4.0 6.0 0.00 0.00 0.00 37 1015.4
20260503173405 58 295 5.0 8.0 0.00 0.00 0.00 41 1015.8
20260503172901 59 320 11.0 17.0 0.00 0.00 0.00 36 1015.4
20260503172359 58 177 2.0 2.0 0.00 0.00 0.00 45 1015.5
20260503171855 58 60 5.0 7.0 0.00 0.00 0.00 40 1015.5
20260503171352 58 326 4.0 7.0 0.00 0.00 0.00 40 1015.8
20260503170850 58 358 11.0 17.0 0.00 0.00 0.00 37 1015.8
20260503170346 57 269 6.0 7.0 0.00 0.00 0.00 40 1015.9
20260503150738 52 55 6.0 9.0 0.00 0.00 0.00 43 1017.2
20260503150234 53 266 6.0 8.0 0.00 0.00 0.00 43 1016.8
20260503140158 51 265 5.0 6.0 0.00 0.00 0.00 50 1017.2
20260503131128 46 345 9.0 10.0 0.00 0.00 0.00 53 1017.3
20260503130626 48 328 3.0 6.0 0.00 0.00 0.00 54 1017.2
20260503130123 47 311 6.0 8.0 0.00 0.00 0.00 54 1017.0
20260503110516 42 123 1.0 1.0 0.00 0.00 0.00 67 1016.1
20260503090408 41 80 1.0 1.0 0.00 0.00 0.00 70 1015.1
20260503081335 41 335 1.0 1.0 0.00 0.00 0.00 71 1015.0
20260503080831 41 335 0.0 1.0 0.00 0.00 0.00 70 1014.8
20260503080328 41 330 0.0 0.0 0.00 0.00 0.00 69 1014.8
20260503072805 42 349 2.0 2.0 0.00 0.00 0.00 65 1014.4
20260503072304 42 339 4.0 6.0 0.00 0.00 0.00 64 1014.5
20260503071758 42 345 4.0 6.0 0.00 0.00 0.00 64 1014.3
20260503071255 43 356 3.0 3.0 0.00 0.00 0.00 64 1014.1
20260503070751 43 343 3.0 5.0 0.00 0.00 0.00 64 1014.4
20260503070249 43 344 1.0 2.0 0.00 0.00 0.00 64 1014.1
20260503060214 41 338 1.0 1.0 0.00 0.00 0.00 71 1013.9
20260503054701 43 31 1.0 2.0 0.00 0.00 0.00 67 1013.9
20260503054159 44 32 0.0 1.0 0.00 0.00 0.00 65 1014.0
20260503053656 44 22 3.0 3.0 0.00 0.00 0.00 64 1014.0
20260503053155 44 24 1.0 1.0 0.00 0.00 0.00 64 1014.0
20260503052651 45 35 2.0 2.0 0.00 0.00 0.00 63 1014.1
20260503052147 45 8 3.0 7.0 0.00 0.00 0.00 62 1014.1
20260503051642 45 357 9.0 10.0 0.00 0.00 0.00 62 1014.0
20260503051141 45 345 9.0 11.0 0.00 0.00 0.00 62 1014.2
20260503050637 45 345 8.0 11.0 0.00 0.00 0.00 62 1013.7
20260503050134 45 354 10.0 13.0 0.00 0.00 0.00 62 1013.9
20260503045631 45 315 8.0 10.0 0.00 0.00 0.00 62 1013.9
20260503045128 45 339 8.0 10.0 0.00 0.00 0.00 62 1014.0
20260503044625 45 74 1.0 2.0 0.00 0.00 0.00 63 1014.0
20260503044122 44 156 3.0 5.0 0.00 0.00 0.00 65 1014.1
20260503043619 45 106 0.0 1.0 0.00 0.00 0.00 65 1014.0
20260503043116 45 357 4.0 6.0 0.00 0.00 0.00 62 1014.2
20260503042612 45 58 3.0 3.0 0.00 0.00 0.00 63 1014.0
20260503042108 45 43 2.0 6.0 0.00 0.00 0.00 66 1014.1
20260503041605 45 190 4.0 5.0 0.00 0.00 0.00 63 1014.1
20260503041103 45 199 5.0 6.0 0.00 0.00 0.00 64 1013.9
20260503040600 45 228 4.0 6.0 0.00 0.00 0.00 63 1014.1
20260503040057 44 49 2.0 2.0 0.00 0.00 0.00 65 1014.1
20260503035554 45 115 1.0 2.0 0.00 0.00 0.00 64 1013.9
20260503035052 45 79 0.0 0.0 0.00 0.00 0.00 62 1014.2
20260503034548 44 86 1.0 1.0 0.00 0.00 0.00 64 1014.1
20260503034046 45 102 1.0 1.0 0.00 0.00 0.00 65 1013.9
20260503033543 46 75 0.0 0.0 0.00 0.00 0.00 63 1014.2
20260503033041 46 304 8.0 9.0 0.00 0.00 0.00 63 1014.1
20260503032539 46 36 1.0 1.0 0.00 0.00 0.00 62 1014.3
20260503032037 46 36 2.0 3.0 0.00 0.00 0.00 61 1014.0
20260503031534 46 34 2.0 3.0 0.00 0.00 0.00 61 1014.0
20260503031031 47 343 5.0 7.0 0.00 0.00 0.00 61 1013.9
20260503030527 47 47 2.0 2.0 0.00 0.00 0.00 60 1014.0
20260503030025 47 26 2.0 2.0 0.00 0.00 0.00 61 1014.1
20260503025521 47 37 2.0 2.0 0.00 0.00 0.00 60 1014.0
20260503025019 47 32 2.0 3.0 0.00 0.00 0.00 60 1014.1
20260503024515 47 44 4.0 5.0 0.00 0.00 0.00 60 1013.9
20260503024012 48 38 5.0 7.0 0.00 0.00 0.00 59 1013.9
20260503023509 48 43 3.0 5.0 0.00 0.00 0.00 59 1013.8
20260503023006 48 14 3.0 3.0 0.00 0.00 0.00 58 1014.2
20260503022502 48 27 2.0 2.0 0.00 0.00 0.00 58 1014.1
20260503021957 48 23 3.0 5.0 0.00 0.00 0.00 58 1014.0
20260503021454 49 47 1.0 2.0 0.00 0.00 0.00 57 1014.0
20260503020951 49 41 8.0 10.0 0.00 0.00 0.00 55 1013.8
20260503020449 50 19 4.0 5.0 0.00 0.00 0.00 53 1013.6
20260503015945 50 307 2.0 2.0 0.00 0.00 0.00 53 1013.9
20260503015442 50 354 5.0 6.0 0.00 0.00 0.00 53 1013.7
20260503014938 50 5 4.0 6.0 0.00 0.00 0.00 54 1013.7
20260503014435 51 41 4.0 8.0 0.00 0.00 0.00 52 1013.7
20260503013933 51 5 5.0 9.0 0.00 0.00 0.00 53 1013.7
20260503013430 50 343 5.0 6.0 0.00 0.00 0.00 52 1013.2
20260503012927 51 31 1.0 1.0 0.00 0.00 0.00 54 1013.6
20260503012425 51 21 1.0 2.0 0.00 0.00 0.00 54 1013.5
20260503011921 51 36 1.0 1.0 0.00 0.00 0.00 53 1013.6
20260503011418 51 27 1.0 2.0 0.00 0.00 0.00 51 1013.3
20260503010915 51 18 4.0 7.0 0.00 0.00 0.00 51 1013.2
20260503010412 51 22 3.0 5.0 0.00 0.00 0.00 52 1013.0
20260503005909 51 31 4.0 6.0 0.00 0.00 0.00 51 1013.1
20260503005406 52 50 2.0 2.0 0.00 0.00 0.00 51 1012.9
20260503004902 52 40 2.0 2.0 0.00 0.00 0.00 48 1012.8
20260503004359 52 54 3.0 5.0 0.00 0.00 0.00 50 1012.7
20260503003857 52 42 5.0 7.0 0.00 0.00 0.00 48 1012.3
20260503003353 52 47 0.0 0.0 0.00 0.00 0.00 50 1012.4
20260503002850 53 6 3.0 3.0 0.00 0.00 0.00 47 1012.2
20260503002348 53 38 2.0 2.0 0.00 0.00 0.00 47 1012.6
20260503001844 53 332 3.0 3.0 0.00 0.00 0.00 46 1012.3
20260503001340 53 40 3.0 5.0 0.00 0.00 0.00 47 1012.3
20260503000838 53 34 0.0 1.0 0.00 0.00 0.00 46 1012.1
20260503000335 53 59 0.0 0.0 0.00 0.00 0.00 49 1012.1
20260502235832 53 67 0.0 0.0 0.00 0.00 0.00 45 1012.2
20260502235329 53 339 2.0 3.0 0.00 0.00 0.00 46 1012.1
20260502234826 53 0 1.0 1.0 0.00 0.00 0.00 44 1012.2
20260502234323 54 16 1.0 2.0 0.00 0.00 0.00 44 1011.9
20260502233820 54 43 1.0 2.0 0.00 0.00 0.00 45 1011.5
20260502233316 54 35 3.0 5.0 0.00 0.00 0.00 44 1011.6
20260502232813 54 28 3.0 3.0 0.00 0.00 0.00 43 1011.7
20260502232309 54 340 3.0 5.0 0.00 0.00 0.00 42 1011.6
20260502231806 54 16 3.0 5.0 0.00 0.00 0.00 42 1011.6
20260502231304 54 28 7.0 8.0 0.00 0.00 0.00 42 1011.8
20260502230802 55 335 4.0 7.0 0.00 0.00 0.00 42 1011.4
20260502230300 55 14 6.0 8.0 0.00 0.00 0.00 42 1011.5
20260502225756 55 343 7.0 8.0 0.00 0.00 0.00 40 1011.4
20260502225253 55 337 3.0 3.0 0.00 0.00 0.00 40 1011.6
20260502224749 55 47 6.0 7.0 0.00 0.00 0.00 43 1011.4
20260502224246 56 4 5.0 7.0 0.00 0.00 0.00 40 1011.4
20260502223743 55 171 3.0 5.0 0.00 0.00 0.00 41 1011.3
20260502223241 55 40 1.0 1.0 0.00 0.00 0.00 43 1011.2
20260502222739 55 89 0.0 0.0 0.00 0.00 0.00 44 1011.4
20260502222235 55 49 2.0 3.0 0.00 0.00 0.00 42 1011.5
20260502221731 55 306 2.0 2.0 0.00 0.00 0.00 41 1011.2
20260502221228 55 345 7.0 9.0 0.00 0.00 0.00 40 1011.5
20260502220725 56 338 7.0 10.0 0.00 0.00 0.00 41 1011.5
20260502220221 55 335 5.0 7.0 0.00 0.00 0.00 41 1011.4
20260502215718 56 335 5.0 6.0 0.00 0.00 0.00 41 1011.3
20260502215215 56 59 2.0 3.0 0.00 0.00 0.00 42 1011.2
20260502214712 56 332 9.0 11.0 0.00 0.00 0.00 41 1011.3
20260502214209 56 359 7.0 9.0 0.00 0.00 0.00 40 1011.2
20260502213706 56 331 11.0 14.0 0.00 0.00 0.00 41 1011.4
20260502213203 57 32 3.0 5.0 0.00 0.00 0.00 40 1011.3
20260502212702 57 304 6.0 8.0 0.00 0.00 0.00 42 1011.3
20260502212200 57 12 4.0 5.0 0.00 0.00 0.00 42 1010.8
20260502211655 56 285 3.0 5.0 0.00 0.00 0.00 43 1011.5
20260502211153 56 333 4.0 5.0 0.00 0.00 0.00 40 1011.2
20260502210650 57 322 6.0 8.0 0.00 0.00 0.00 40 1011.2
20260502210147 57 14 0.0 1.0 0.00 0.00 0.00 44 1011.1
20260502205644 57 337 9.0 9.0 0.00 0.00 0.00 41 1011.0
20260502205140 57 349 6.0 7.0 0.00 0.00 0.00 41 1011.0
20260502204637 56 355 5.0 7.0 0.00 0.00 0.00 40 1011.2
20260502204135 56 343 9.0 10.0 0.00 0.00 0.00 41 1011.2
20260502203632 57 343 8.0 10.0 0.00 0.00 0.00 40 1011.2